Date,TemperatureHighF,TemperatureAvgF,TemperatureLowF,DewpointHighF,DewpointAvgF,DewpointLowF,HumidityHigh,HumidityAvg,HumidityLow,PressureMaxIn,PressureMinIn,WindSpeedMaxMPH,WindSpeedAvgMPH,GustSpeedMaxMPH,PrecipitationSumIn
2013-6-1,76.0,58.7,36.0,39.0,33.1,25.0,86,44,15,0.00,40.00,10,5,13,0.00
2013-6-2,85.0,67.9,51.0,45.0,37.4,29.0,57,34,17,0.00,40.00,24,12,29,0.00
2013-6-3,71.0,58.0,43.0,44.0,36.8,29.0,82,48,23,0.00,40.00,19,9,23,0.00
2013-6-4,74.0,59.4,41.0,46.0,38.0,33.0,87,50,24,0.00,40.00,16,6,19,0.00
2013-6-5,80.0,61.4,41.0,52.0,40.6,33.0,84,51,19,0.00,40.00,11,5,14,0.00
2013-6-6,83.0,67.2,48.0,53.0,43.4,38.0,72,45,22,0.00,40.00,22,7,30,0.00
2013-6-7,86.0,68.7,50.0,56.0,48.2,42.0,87,52,24,0.00,40.00,22,10,25,0.00
2013-6-8,83.0,68.9,58.0,53.0,46.3,36.0,73,47,19,0.00,40.00,19,11,23,0.00
2013-6-9,90.0,75.0,58.0,61.0,45.1,39.0,58,37,17,0.00,40.00,16,10,20,0.00
2013-6-10,92.0,75.9,58.0,59.0,46.2,32.0,75,39,14,0.00,40.00,19,8,30,0.00
2013-6-11,82.0,71.6,60.0,59.0,47.7,34.0,67,44,25,0.00,40.00,20,11,25,0.00
2013-6-12,76.0,65.4,57.0,60.0,52.3,45.0,95,64,43,0.00,40.00,17,8,20,0.17
2013-6-13,73.0,61.9,54.0,56.0,48.1,37.0,95,64,33,0.00,40.00,19,11,24,0.01
2013-6-14,67.0,54.8,44.0,44.0,37.4,29.0,81,55,25,0.00,40.00,19,12,24,0.00
2013-6-15,81.0,57.3,36.0,43.0,33.8,26.0,86,49,14,0.00,40.00,9,5,12,0.00
2013-6-16,89.0,66.1,45.0,53.0,41.2,31.0,90,47,13,0.00,40.00,20,5,32,0.00
2013-6-17,89.0,71.3,47.0,51.0,42.4,29.0,87,42,12,0.00,40.00,11,6,13,0.00
2013-6-18,90.0,70.5,51.0,51.0,40.9,33.0,81,38,16,0.00,40.00,14,8,16,0.00
2013-6-19,69.0,59.9,46.0,51.0,42.4,35.0,82,53,29,0.00,40.00,33,15,42,0.03
2013-6-20,65.0,48.5,39.0,42.0,38.4,33.0,95,71,31,0.00,40.00,12,8,16,0.01
2013-6-22,70.0,62.8,48.0,45.0,40.5,35.0,74,46,27,0.00,40.00,21,12,26,0.00
2013-6-23,80.0,60.0,42.0,48.0,39.1,33.0,79,50,19,0.00,40.00,12,6,14,0.00
2013-6-24,75.0,66.0,58.0,56.0,48.0,38.0,92,54,35,0.00,40.00,24,10,30,0.02
2013-6-25,78.0,64.8,54.0,62.0,54.5,47.0,96,73,37,0.00,40.00,11,6,16,0.04
2013-6-26,85.0,66.6,51.0,59.0,54.1,50.0,96,69,32,0.00,40.00,12,6,15,0.02
2013-6-27,95.0,71.8,54.0,60.0,52.5,44.0,88,59,18,0.00,40.00,9,5,10,0.00
2013-6-28,97.0,74.3,56.0,58.0,52.2,42.0,82,51,15,0.00,40.00,8,5,11,0.00
2013-6-29,101.0,76.1,60.0,60.0,50.3,44.0,73,46,15,0.00,40.00,14,6,20,0.00
2013-6-30,98.0,79.5,60.0,63.0,54.5,44.0,85,47,16,0.00,40.00,14,4,20,0.00